This is the latest recevied weather packets stored in our database for station/object TF3VP-10. If no packets are shown the sender has not sent any weather packets the latest 10 day(s).
| Time | Temp. | Humidity | Pressure | Rain* | Wind** | Luminosity | Snow |
|---|---|---|---|---|---|---|---|
| 1778117747 | -0.56° C | 56% | 1035.5 hPa | - | - | - | - |
| 1778116847 | -0.56° C | 56% | 1035.7 hPa | - | - | - | - |
| 1778115948 | -0.56° C | 56% | 1035.5 hPa | - | - | - | - |
| 1778115047 | -0.56° C | 56% | 1035.4 hPa | - | - | - | - |
| 1778114147 | -0.56° C | 54% | 1035.5 hPa | - | - | - | - |
| 1778113247 | 0° C | 55% | 1035.5 hPa | - | - | - | - |
| 1778112348 | 0° C | 56% | 1035.4 hPa | - | - | - | - |
| 1778111447 | 0° C | 56% | 1035.6 hPa | - | - | - | - |
| 1778110547 | 0° C | 57% | 1035.4 hPa | - | - | - | - |
| 1778109648 | 0° C | 56% | 1035.6 hPa | - | - | - | - |
| 1778108748 | 0° C | 55% | 1035.6 hPa | - | - | - | - |
| 1778107848 | 0.56° C | 54% | 1035.5 hPa | - | - | - | - |
| 1778106948 | 0.56° C | 54% | 1035.5 hPa | - | - | - | - |
| 1778106049 | 0.56° C | 53% | 1035.5 hPa | - | - | - | - |
| 1778105148 | 1.11° C | 53% | 1035.4 hPa | - | - | - | - |
| 1778104248 | 1.11° C | 54% | 1035.3 hPa | - | - | - | - |
| 1778103348 | 1.67° C | 54% | 1035.4 hPa | - | - | - | - |
| 1778102448 | 1.67° C | 52% | 1035.3 hPa | - | - | - | - |
| 1778101548 | 1.67° C | 54% | 1035.6 hPa | - | - | - | - |
| 1778100648 | 2.22° C | 54% | 1035.7 hPa | - | - | - | - |
| 1778099749 | 2.22° C | 53% | 1035.6 hPa | - | - | - | - |
| 1778098848 | 2.78° C | 51% | 1035.6 hPa | - | - | - | - |
| 1778097948 | 2.78° C | 51% | 1035.6 hPa | - | - | - | - |
| 1778097048 | 2.78° C | 50% | 1035.7 hPa | - | - | - | - |
| 1778096148 | 3.33° C | 50% | 1035.5 hPa | - | - | - | - |
* Rain since midnight (hover to see other rain measurements)
** Current wind speed in m/s (hover to see current wind gust speed)